Location: Unspecified
(0.0000°N, 0.0000°E)
Time: 05:19:10
(UTC+00:00)

Oscar 19 - Visible Passes

Search period start: 06 June 2026 00:00
Search period end: 16 June 2026 00:00
Orbit: 770 x 786 km, 98.9° (Epoch: 5 June)

Date Brightness Start Highest point End Pass type
(mag) Time Alt. Az. Time Alt. Az. Time Alt. Az.
6 Jun 10.6 18:47:20 10° SSE 18:52:29 81° ENE 18:57:38 10° N visible
7 Jun 13.3 19:55:27 10° SW 19:58:27 16° WSW 20:01:29 10° WNW visible
8 Jun 11.9 19:20:44 10° S 19:25:31 39° WSW 19:30:19 10° NW visible
9 Jun 10.6 18:47:25 10° SSE 18:52:35 80° ENE 18:57:44 10° N visible
10 Jun 13.2 19:55:29 10° SW 19:58:33 16° WSW 20:01:36 10° WNW visible
11 Jun 11.9 19:20:49 10° S 19:25:37 40° WSW 19:30:26 10° NW visible
12 Jun 10.6 18:47:30 10° SSE 18:52:40 79° ENE 18:57:50 10° N visible
13 Jun 13.2 19:55:32 10° SW 19:58:38 16° WSW 20:01:44 10° WNW visible
14 Jun 11.9 19:20:53 10° S 19:25:42 40° WSW 19:30:32 10° NNW visible
15 Jun 10.6 18:47:35 10° SSE 18:52:46 79° ENE 18:57:55 10° N visible
